Location: Newark
(51.8900°N, 2.0780°W)
Time: 12:27:23
(UTC+00:00)

Envisat - Pass Details

Date: 30 November 2019
Orbit: 764 x 766 km, 98.1° (Epoch: 07 December)

Event Time Altitude Azimuth Distance (km) Brightness Sun altitude
Rises 18:48:41 0° 192° (SSW) 3,220 6.4 -24.8°
Reaches altitude 10° 18:51:12 10° 202° (SSW) 2,299 5.8 -25.2°
Maximum altitude 18:55:44 32° 266° (W) 1,292 4.7 -25.9°
Drops below altitude 10° 19:00:17 10° 329° (NNW) 2,314 5.8 -26.6°
Sets 19:02:51 0° 339° (NNW) 3,245 6.5 -27.0°
